Regional Weather Roundup
Issued by NWS

Home | Current Version | Previous Version | Graphics & Text | Print | Product List | Glossary On
Versions: 1 2 3 4 5 6 7 8 9 10 11 12 13 14 15 16 17 18 19 20 21 22 23 24 25 26 27 28 29 30 31 32 33 34 35 36 37 38 39 40 41 42 43 44 45 46 47 48 49 50
000
ASUS43 KMKX 241000
RWRWI

WISCONSIN REGIONAL WEATHER ROUNDUP
NATIONAL WEATHER SERVICE MILWAUKEE/SULLIVAN WI
500 AM CDT TUE MAY 24 2016

NOTE: "FAIR" INDICATES FEW OR NO CLOUDS BELOW 12,000 FEET WITH NO
SIGNIFICANT WEATHER AND/OR OBSTRUCTIONS TO VISIBILITY.

WIZ001-002-006>008-014>016-023>028-241100-
NORTHWEST WISCONSIN

CITY           SKY/WX    TMP DP  RH WIND       PRES   REMARKS
SUPERIOR ARPT  CLOUDY    57  57 100 CALM      29.80F
ASHLAND        LGT RAIN  58  58 100 CALM      29.84R
HAYWARD        CLOUDY    60  58  92 CALM      29.83S
SIREN          CLOUDY    60  59  94 CALM      29.80S
CUMBERLAND     MOCLDY    59  57  94 SE8       29.82F
RICE LAKE      MOCLDY    62  59  91 SE5       29.85S
CHETEK         MOCLDY    62  61  99 SE6       29.84S
LADYSMITH      CLOUDY    63  61  93 S7        29.87R
EAU CLAIRE     NOT AVBL
MENOMONIE      CLOUDY    62  62  99 E5        29.83S
NEW RICHMOND   CLOUDY    62  61  96 SE5       29.81S
OSCEOLA        MOCLDY    63  63 100 S6        29.82S
$$

WIZ003>005-009-010-017-018-241100-
NORTH CENTRAL WISCONSIN

CITY           SKY/WX    TMP DP  RH WIND       PRES   REMARKS
MANITOWISH WTR RAIN      60  60 100 CALM      29.87R
ARBOR VITAE    RAIN      62  59  91 SW5       29.88R
WOODRUFF       RAIN      62  59  91 SW5       29.88R
RHINELANDER    LGT RAIN  61  59  93 SW6       29.90S
EAGLE RIVER    RAIN      60  58  94 SW5       29.89R
LAND O LAKES   LGT RAIN  58  56  91 CALM      29.89R
PHILLIPS       CLOUDY    61  61 100 CALM      29.86S
TOMAHAWK       RAIN      61  59  94 CALM      29.89F
MEDFORD        RAIN      61  61  99 CALM      29.87S
MERRILL        CLOUDY    61  57  86 SE3       29.89S
$$

WIZ029-030-035-036-043>047-241100-
CENTRAL WISCONSIN

CITY           SKY/WX    TMP DP  RH WIND       PRES   REMARKS
WAUSAU         CLOUDY    62  54  74 E5        29.87S
MOSINEE        CLOUDY    57  50  77 CALM      29.90R
MARSHFIELD     CLOUDY    60  57  89 NW5       29.87S
STEVENS POINT  PTCLDY    55  48  75 CALM      29.89S
WAUPACA        PTCLDY    54  48  82 CALM      29.90R
WAUTOMA        CLOUDY    50  48  93 CALM      29.90S
WISC RAPIDS    CLOUDY    63  47  55 S5        29.89S
CAMP DOUGLAS   CLOUDY    61  55  82 SE7       29.87S
$$

WIZ011>013-019>022-031-037>040-048>050-241100-
NORTHEAST WISCONSIN

CITY           SKY/WX    TMP DP  RH WIND       PRES   REMARKS
ANTIGO         CLOUDY    60  53  76 CALM      29.91R
SHAWANO        CLOUDY    62  50  65 CALM      29.89S
OCONTO         CLOUDY    49  49 100 CALM      29.88S
STURGEON BAY   NOT AVBL
GREEN BAY      CLEAR     56  44  64 S5        29.89S
MANITOWOC      NOT AVBL
APPLETON       CLOUDY    55  43  62 S5        29.88F
CLINTONVILLE   MOCLDY    59  46  63 CALM      29.89S
OSHKOSH        CLEAR     56  45  66 S7        29.90S
$$

WIZ032>034-041-042-053>061-241100-
SOUTHWEST WISCONSIN

CITY           SKY/WX    TMP DP  RH WIND       PRES   REMARKS
LA CROSSE      CLOUDY    68  57  68 SE7       29.84F
SPARTA         CLOUDY    61  56  83 CALM      29.87S
VIROQUA        CLOUDY    64  50  59 S5        29.88S
BOSCOBEL       CLOUDY    60  55  83 CALM      29.88S
PRAIRIE DU CHI CLOUDY    66  51  57 CALM      29.87S
PLATTEVILLE    CLOUDY    65  51  60 S8        29.91S
$$

WIZ056-057-062-063-064-067-068-241100-
SOUTH CENTRAL WISCONSIN

CITY           SKY/WX    TMP DP  RH WIND       PRES   REMARKS
REEDSBURG      CLOUDY    64  49  58 CALM      29.89S
BARABOO/DELLS  CLOUDY    61  48  61 S5        29.90R
LONE ROCK      NOT AVBL
MINERAL POINT  CLOUDY    61  48  63 S6        29.92R
MADISON        CLOUDY    63  50  62 S6        29.91S
MIDDLETON      CLOUDY    58  49  72 S3        29.91F
WATERTOWN      PTCLDY    57  47  68 S3        29.92S
MONROE         CLOUDY    61  46  59 S6        29.93S
JANESVILLE     CLEAR     59  48  67 S3        29.93S
$$

WIZ051-052-058>065-066-070>072-241100-
SOUTHEAST WISCONSIN

CITY           SKY/WX    TMP DP  RH WIND       PRES   REMARKS
MILWAUKEE      PTCLDY    60  44  55 SW8       29.94R
WAUKESHA       CLEAR     57  43  58 S7        29.95R
MILWAUKEE/TIMM CLEAR     54  39  58 CALM      29.95R
RACINE         CLEAR     61  45  55 SW7       29.96R
BURLINGTON     CLOUDY    51  45  78 SW5       29.95R
KENOSHA        PTCLDY    59  46  62 SW6       29.96R
FOND DU LAC    CLEAR     56  45  66 S6        29.91S
SHEBOYGAN      CLEAR     51  42  71 SW3       29.92S
WEST BEND      CLEAR     52  43  71 CALM      29.93R
JUNEAU         PTCLDY    58  46  64 S7        29.93S
$$

LSZ147-162-241100-
LAKE SUPERIOR

STATION/POSITION TIME  TEMP    WIND        PRES    WAVE
                       AIR SEA DIR/SP/G            HT/PER
                 (UTC) (F)     (DEG/KT/KT) (MB)    (FT/S)
W MID LAKE BUOY  0850   45 38  250/  8/  8 1010.3R   1
DEVILS ISLAND    0900   57      CALM  /  2 1010.2F
PORT WING        0800          360/  8/ 10 1009.8R
SAXON HARBOR     0900   60     190/  3/  5 1009.5R
$$

LMZ867-665-643>646-241100-
LAKE MICHIGAN

STATION/POSITION TIME  TEMP    WIND        PRES    WAVE
                       AIR SEA DIR/SP/G            HT/PER
                 (UTC) (F)     (DEG/KT/KT) (MB)    (FT/S)
CHAMBERS ISLAND  0940   61     190/  5/ 10 1011.9R
N MID LAKE BUOY  0850   48 44  200/ 12/ 14 1011.6S   2/ 4
NORTHPORT PIER   0900   60     170/  5/ 10 1011.5S
SISTER BAY       0904   62     180/ 10/ 13   N/A
ALGOMA LAKESHORE 0901          220/ 10/ 11   N/A
KEWAUNEE LAKESHO 0900   53     180/  7/  8 1011.8R
SHEBOYGAN LAKESH 0900   55     180/  7/  7 1013.4R
PORT WASHINGTON  0900   54        CALM     1013.9
S MID LAKE BUOY  0850   54 48  170/ 12/ 14 1013.8S   1
KENOSHA   LAKESH 0900   65     230/  8/ 13 1013.5S
$$

TC  - TEMPERATURE IN CELSIUS
VSB - VISIBILITY IN STATUTE MILES
WCI - WIND CHILL INDEX
HX  - HEAT INDEX




USA.gov is the U.S. government's official web portal to all federal, state and local government web resources and services.